Location: La Brionne
(46.1728°N, 1.7849°E)
Time: 17:19:33
(UTC+00:00)

Cosmos 1544 Rocket - Pass Details

Date: 26 October 2021
Orbit: 603 x 632 km, 82.5° (Epoch: 27 November)

Event Time Altitude Azimuth Distance (km) Brightness Sun altitude
Rises 05:20:00 0° 344° (NNW) 2,907 6.8 -11.9°
Reaches altitude 10° 05:22:20 10° 338° (NNW) 1,991 5.9 -11.5°
Maximum altitude 05:26:27 41° 268° (W) 892 3.9 -10.8°
Drops below altitude 10° 05:30:32 10° 198° (SSW) 1,959 6.0 -10.1°
Sets 05:32:49 0° 191° (S) 2,854 6.9 -9.7°
